RH
27 22 18 14 10 8 8 9 9 8 8 7 7 7 7 7 6 6 5 4 4 3 3 3 3 3 3 3 3 2 3 2 2 2 2 2 2 2 2 2 2 3 4 4 5 4 4 4 4 4 4 4 4 4 4 4 4 4 4 4 4 4 4
25 21 16 12 9 9 9 9 9 8 8 7 7 7 7 6 6 5 5 4 4 4 3 3 3 3 3 3 3 3 3 3 2 3 2 2 2 2 2 2 2 3 3 4 4 4 4 4 4 4 4 4 4 4 4 4 4 4 4 3 3 4 4
23 18 14 10 9 9 9 9 9 8 8 7 7 7 6 6 6 5 5 4 4 3 3 3 3 3 3 3 3 3 3 3 3 3 3 3 2 3 2 2 2 2 3 3 4 4 3 3 4 4 3 4 4 3 3 4 4 4 4 3 3 3 3
20 15 12 10 9 10 10 9 9 8 8 8 7 7 6 6 5 5 5 4 4 3 3 3 3 3 3 3 3 3 3 3 3 3 3 3 3 3 3 3 3 3 3 3 4 4 3 3 3 3 3 3 3 3 3 3 3 3 3 3 3 3 3
16 12 10 9 9 10 10 9 9 9 8 8 7 6 6 6 5 5 5 4 4 4 3 3 3 3 3 3 4 4 3 3 3 3 3 3 3 3 3 3 3 3 3 3 4 4 3 3 3 3 3 3 3 3 3 3 3 3 3 3 3 3 3
13 10 10 10 10 10 10 9 9 8 8 7 6 6 6 6 5 5 5 4 4 4 3 3 3 3 3 4 4 4 3 3 3 3 3 3 3 3 3 3 3 3 3 3 4 4 4 3 3 3 3 3 3 3 2 2 2 2 2 2 2 2 2
12 11 10 10 10 10 10 9 9 8 8 7 6 6 6 5 5 5 5 5 4 4 4 3 3 3 4 4 4 4 3 3 3 3 3 3 3 3 3 3 3 3 3 3 3 3 3 3 3 3 3 3 3 3 3 2 2 2 2 2 2 2 2
12 11 11 11 10 10 10 10 9 8 7 6 6 6 6 6 5 5 5 5 4 4 4 3 3 3 4 4 4 4 4 3 4 4 4 4 3 3 3 3 3 3 3 3 3 3 3 3 3 3 3 4 3 3 3 2 2 2 2 2 2 2 2
12 11 11 11 10 11 10 10 9 8 6 6 5 5 6 6 5 6 6 5 5 4 3 3 3 3 4 4 4 4 4 4 4 4 4 4 3 4 4 3 3 3 3 3 3 3 3 3 3 3 3 3 3 3 3 3 2 3 2 2 2 2 2
12 11 11 11 11 11 11 10 8 7 6 5 5 5 6 6 6 6 6 5 5 4 3 3 3 4 4 4 4 4 4 4 4 4 4 4 4 4 4 3 3 3 3 3 3 3 3 3 3 3 3 3 3 3 3 3 2 3 3 3 3 2 2
12 12 11 11 11 11 11 9 7 6 5 5 5 5 6 6 7 6 6 5 5 4 4 3 4 4 4 4 4 4 4 4 4 4 4 4 4 4 4 4 3 3 3 3 3 3 3 3 3 3 3 3 3 3 3 2 3 2 2 3 3 3 2
12 12 11 11 11 11 10 8 6 5 5 5 5 5 5 6 7 7 6 5 5 4 4 4 4 4 4 4 4 4 4 4 4 5 5 5 5 4 4 4 3 3 3 3 3 3 3 3 3 3 3 3 3 3 3 3 3 3 3 2 2 3 3
12 12 12 12 11 11 9 7 6 5 5 5 5 5 6 6 6 7 6 5 5 4 4 4 4 5 4 4 4 4 4 5 5 5 5 5 5 5 4 4 4 3 3 3 3 4 3 3 3 3 3 3 3 3 3 3 3 3 3 2 2 2 3
12 12 12 12 11 9 8 6 6 5 5 5 6 5 6 6 6 6 6 5 5 4 4 4 4 5 4 4 4 4 4 5 5 5 5 5 5 5 4 4 4 3 3 4 4 4 4 3 3 3 3 3 3 3 3 3 3 3 3 3 3 3 3
13 13 13 12 10 8 7 6 6 5 5 5 6 6 6 6 6 6 6 6 5 4 4 5 4 5 5 4 5 5 5 5 5 5 5 5 5 5 4 4 3 3 3 4 4 4 4 4 3 3 3 3 3 3 3 3 3 3 3 2 3 3 3
13 13 13 11 9 7 7 7 6 5 5 5 5 6 6 6 6 6 6 5 5 5 4 5 5 5 5 5 5 5 5 5 5 6 6 6 5 5 4 4 3 3 3 3 3 4 4 4 4 3 3 3 3 2 3 3 3 3 3 2 3 3 3
14 14 12 9 8 7 7 7 6 5 5 5 6 6 6 7 6 6 6 5 5 5 5 5 5 5 6 6 5 6 6 5 6 7 7 7 6 5 5 4 4 3 3 3 3 4 4 4 4 4 3 3 3 2 2 3 3 3 3 3 3 3 3
14 13 11 9 8 7 7 7 6 5 5 5 6 6 6 7 6 6 6 5 5 5 5 5 5 5 6 6 6 6 7 6 7 8 8 8 8 7 5 5 4 3 3 3 3 4 4 4 4 4 3 3 3 3 3 3 3 3 3 3 3 3 3
14 12 10 8 8 7 6 7 6 5 5 5 6 6 6 7 7 6 6 6 5 5 5 5 6 6 6 7 7 8 8 7 7 8 8 8 8 8 7 6 5 4 3 3 3 3 4 4 4 3 3 3 3 3 3 3 3 3 3 3 3 3 3
13 11 10 9 8 7 6 6 6 6 6 6 6 6 6 7 6 6 6 6 5 5 5 6 6 6 7 8 9 9 9 9 8 8 8 8 8 8 7 6 5 4 4 4 3 3 4 4 4 4 4 3 3 3 3 3 3 3 3 3 3 3 3
11 10 10 9 7 6 6 6 6 6 6 6 6 6 6 6 6 6 6 6 6 6 6 6 7 7 8 9 10 11 11 10 9 8 8 8 7 8 7 7 6 4 4 4 4 4 4 3 4 4 4 4 3 3 3 3 3 3 3 3 3 3 3
11 10 10 9 7 6 6 6 6 6 6 6 6 6 6 6 7 7 6 6 6 6 7 8 8 9 10 10 11 11 11 11 9 8 8 7 7 7 7 7 6 5 4 4 4 4 4 4 4 4 4 4 4 3 3 3 3 3 3 3 3 3 3
11 10 10 9 7 5 5 6 6 7 7 7 7 6 6 7 7 7 7 8 8 8 8 10 10 11 12 11 11 11 11 11 9 8 7 6 6 7 7 7 7 6 5 5 4 4 4 4 4 4 4 4 4 3 3 3 3 3 3 3 3 3 3
11 10 9 8 6 5 5 6 6 7 7 8 8 7 7 8 8 9 9 9 10 10 11 12 13 14 13 12 12 12 11 10 9 8 7 6 6 6 6 6 6 6 5 5 5 5 4 4 4 5 4 4 4 4 4 3 3 3 3 3 3 4 3
11 11 9 8 6 6 6 6 6 8 9 10 10 9 9 9 10 11 11 11 12 12 14 15 16 15 14 12 13 13 11 9 9 8 7 7 6 6 6 5 5 5 5 5 5 5 4 4 4 5 4 4 4 4 4 4 3 3 3 3 3 4 4
11 10 9 7 6 6 6 6 7 9 11 12 12 12 11 11 11 11 12 13 13 14 16 17 17 15 14 13 13 13 12 10 10 9 8 8 7 6 6 5 5 5 5 5 5 5 5 5 5 5 5 4 4 4 4 4 4 3 3 3 3 4 4
11 10 8 7 7 6 6 6 7 11 13 14 14 13 13 12 12 11 12 12 12 15 17 18 17 15 14 15 15 14 14 14 13 12 11 10 9 8 7 6 5 5 5 5 6 5 5 5 5 5 5 4 4 4 4 4 4 4 3 4 3 3 4
11 10 8 8 7 7 7 7 9 12 14 15 15 14 13 13 13 12 11 10 11 14 15 16 16 16 17 17 17 16 16 16 16 16 15 14 12 11 10 9 7 6 5 5 6 6 5 5 5 5 5 5 4 4 4 4 4 4 3 4 4 3 3
11 10 8 8 7 7 7 9 10 13 16 16 16 15 13 13 13 12 11 10 11 13 14 15 16 16 17 17 16 16 16 17 18 18 17 16 15 13 11 10 9 8 7 6 6 6 5 5 6 5 5 5 4 4 5 4 4 4 4 4 4 4 3
10 10 9 8 8 7 8 10 11 13 15 15 16 15 14 13 13 13 11 10 11 13 14 14 15 15 16 17 17 17 18 18 19 18 17 15 14 12 11 10 8 8 7 6 6 7 6 5 6 6 5 5 5 5 5 5 4 4 4 4 4 4 4
10 10 10 9 9 10 10 12 13 13 13 13 13 13 13 13 15 16 14 10 11 13 14 13 14 15 15 17 17 17 16 16 15 14 13 11 10 10 9 9 7 7 6 6 6 7 6 6 6 6 5 6 5 5 5 5 5 4 4 4 4 4 4
9 10 10 9 10 12 14 15 15 14 14 13 12 12 12 12 14 17 17 13 11 13 13 13 13 13 13 13 13 12 12 12 11 11 10 9 8 8 8 8 7 7 6 6 5 6 6 6 6 5 6 6 5 5 5 5 5 5 4 4 4 4 4
8 9 9 10 12 14 16 17 17 16 14 13 13 13 13 12 13 16 18 16 14 13 13 12 12 11 11 11 10 10 10 10 9 9 9 8 7 7 7 7 7 6 6 6 6 6 6 6 6 6 5 5 6 6 5 5 5 5 5 4 4 4 4
7 8 9 11 14 16 17 18 18 18 17 15 14 14 13 13 12 13 15 15 14 13 13 12 12 11 11 11 10 10 9 9 9 8 8 8 7 7 7 6 6 6 6 6 6 6 6 6 6 6 5 6 6 6 5 5 5 4 5 5 4 4 4
7 7 8 12 15 17 17 17 17 18 18 18 17 16 15 13 12 11 12 12 12 12 12 11 11 11 11 10 10 10 10 9 9 9 8 8 8 7 7 7 6 6 6 6 6 6 6 6 6 6 6 6 6 6 5 5 5 5 4 4 4 4 4
8 8 9 12 15 17 16 15 16 17 17 18 18 18 16 14 12 11 11 11 11 12 12 12 11 11 11 10 10 10 10 9 9 9 9 9 8 8 8 7 7 6 6 6 6 6 6 6 6 6 6 6 6 6 6 5 5 5 5 4 5 4 4
Wind_Speed
90 91 92 92 92 92 91 91 92 92 92 92 91 90 90 91 93 94 96 96 96 95 94 93 93 93 92 92 91 92 92 92 92 92 92 93 94 96 98 99 101 102 105 112 120 122 124 127 129 132 135 138 139 142 144 145 146 148 150 151 153 154 155
90 91 91 91 91 90 90 90 90 91 91 90 89 88 88 89 90 92 93 93 93 92 91 89 89 89 88 88 88 89 89 90 90 90 90 91 91 93 94 95 97 98 100 105 112 117 119 122 125 127 130 134 136 138 141 143 144 145 146 148 149 150 151
89 90 90 90 90 89 89 89 89 89 89 88 87 86 86 86 88 89 89 90 89 88 87 86 85 85 84 84 84 85 86 86 87 87 88 89 90 91 92 93 94 95 97 100 106 112 115 117 120 123 126 130 133 135 138 140 142 143 143 145 146 147 148
89 89 89 89 89 88 88 88 88 88 87 87 86 84 84 84 85 86 86 86 86 85 84 83 82 81 80 80 81 82 83 83 84 85 86 86 88 88 89 90 91 92 94 97 101 107 111 113 115 119 122 126 130 133 135 136 138 140 141 142 143 144 144
88 89 89 88 88 87 87 87 87 86 86 85 85 83 82 82 83 83 84 84 84 82 81 80 78 78 77 76 77 79 80 81 82 82 83 84 84 85 86 87 88 90 91 94 97 102 107 110 113 116 119 123 126 129 132 133 134 136 137 138 139 140 141
87 88 88 88 87 87 86 86 86 86 85 84 83 82 80 80 81 81 82 82 82 80 79 77 75 74 73 73 74 76 78 79 79 80 80 81 82 82 83 85 87 88 89 91 94 98 103 107 110 113 116 120 122 124 127 129 130 131 133 134 134 135 136
87 88 88 87 87 86 86 86 86 85 84 83 82 80 78 79 79 79 80 81 80 78 76 74 72 70 70 70 72 74 75 76 77 77 78 79 79 80 82 83 85 87 88 89 91 94 98 102 106 110 113 116 118 119 121 124 125 126 128 129 129 129 131
88 88 88 87 86 86 85 85 85 85 83 82 81 78 77 77 77 77 79 79 78 77 74 72 69 67 67 68 69 71 73 73 74 74 75 76 77 78 80 82 84 85 87 88 88 90 93 97 101 105 109 112 114 115 116 119 121 121 123 125 125 125 126
88 88 87 87 86 86 85 85 85 84 82 81 79 76 76 76 76 76 77 78 77 75 73 70 67 65 64 65 67 68 69 70 71 71 73 74 75 77 79 80 82 84 85 85 86 87 90 92 96 101 105 107 109 110 112 115 117 117 118 121 122 122 123
88 87 87 86 85 85 85 85 85 83 81 80 77 74 73 74 75 75 76 76 75 74 72 69 66 64 63 64 65 65 66 67 68 69 71 72 74 75 77 79 80 82 82 83 83 84 86 88 92 97 100 102 104 107 108 110 112 112 113 117 119 120 122
87 87 86 86 85 85 85 85 84 82 80 78 75 72 71 71 73 75 75 74 74 73 71 67 64 62 62 63 63 63 63 64 65 67 68 70 72 74 75 77 78 79 80 80 80 81 83 85 88 93 96 98 101 103 104 105 107 108 109 112 115 116 119
87 86 86 85 84 84 85 85 83 81 78 76 74 71 69 68 70 74 75 74 72 71 69 66 63 61 61 62 62 61 60 61 62 64 65 67 69 71 73 75 76 77 77 76 76 77 80 83 85 89 93 96 97 98 99 100 102 104 105 107 108 110 113
86 86 86 85 84 84 84 84 82 79 77 74 72 70 68 67 68 71 73 73 72 70 67 64 61 60 61 61 61 60 59 58 59 61 62 64 66 69 71 73 75 74 73 72 72 74 77 81 83 86 90 93 93 93 95 97 99 100 101 102 103 104 108
86 86 86 85 84 83 83 83 80 77 75 72 70 68 67 66 67 69 71 72 71 69 66 62 60 60 61 60 59 58 57 57 57 58 60 62 64 66 69 71 73 72 69 68 69 72 76 79 80 81 85 88 90 90 92 94 95 96 97 98 99 102 104
85 85 86 85 84 83 82 82 79 75 73 70 68 66 66 66 66 67 69 70 70 68 65 62 60 60 60 60 58 57 55 55 55 55 57 59 61 64 66 69 69 68 66 66 67 68 71 75 77 78 81 84 87 88 89 90 91 93 94 95 96 99 102
85 85 85 85 83 82 81 80 78 73 71 69 66 64 65 65 65 66 67 68 68 66 63 61 60 60 59 59 58 55 54 53 53 53 55 56 59 62 64 66 66 65 63 63 63 63 66 71 75 77 78 81 83 84 84 85 87 90 92 92 92 95 98
84 85 85 84 82 81 79 78 76 73 69 67 65 63 63 64 65 65 66 66 65 63 62 61 60 58 57 57 56 54 53 52 51 51 52 54 57 60 63 64 65 63 61 60 60 61 63 66 70 73 75 78 80 80 79 80 83 87 88 87 88 91 95
84 84 85 83 81 79 77 75 75 72 69 66 64 61 61 62 64 65 65 64 63 61 60 59 58 56 55 56 55 54 53 52 49 48 49 51 54 58 62 64 65 63 60 58 58 59 61 64 66 68 71 75 77 77 76 77 79 82 82 83 85 89 92
83 84 84 83 81 78 75 73 73 71 68 65 63 61 60 61 63 64 63 62 61 59 58 57 55 54 53 53 53 53 52 51 48 47 48 49 51 55 59 63 64 62 59 57 57 57 58 61 63 65 67 71 74 75 74 74 76 77 77 78 82 86 89
83 82 83 82 80 77 74 71 71 70 67 65 63 61 59 59 61 62 62 61 60 58 56 54 53 53 52 51 52 52 52 51 49 46 46 47 49 53 56 60 63 62 59 58 57 56 56 58 59 61 64 68 70 71 71 71 72 73 73 75 79 82 84
82 81 81 81 79 76 73 70 69 68 66 64 62 60 58 57 59 60 60 59 57 55 54 53 51 51 51 50 50 50 50 50 49 47 45 46 47 49 53 57 60 61 59 57 56 56 56 56 57 58 61 65 68 68 67 66 67 68 70 72 75 77 80
80 79 79 80 78 75 71 69 67 66 65 63 61 59 57 55 56 57 58 57 55 53 52 52 51 50 50 50 50 49 49 49 49 47 46 45 44 46 50 53 57 60 59 56 55 55 55 55 56 57 58 61 64 66 64 63 63 64 67 69 71 74 76
79 78 77 78 77 74 70 67 65 64 63 62 61 58 56 54 53 54 55 54 53 51 51 50 49 49 50 50 49 48 49 49 48 47 46 44 42 43 47 51 54 57 57 55 54 54 54 54 54 56 57 58 60 62 62 60 60 61 64 66 68 71 74
77 76 76 76 76 73 69 66 63 61 60 60 59 57 55 53 51 51 51 52 51 50 49 49 48 48 50 50 48 48 49 49 48 47 46 44 42 43 45 48 51 54 55 54 53 53 53 52 52 54 56 56 57 59 59 59 59 60 62 64 65 68 71
75 75 75 75 74 71 68 64 61 59 58 58 58 56 54 52 50 49 49 49 48 48 47 47 48 49 50 49 48 48 50 49 47 47 46 45 43 43 44 46 48 50 51 52 51 51 51 51 50 52 54 55 56 57 57 57 58 59 60 62 63 65 68
74 73 73 73 72 69 67 63 59 57 56 56 56 55 53 52 50 48 47 47 46 45 46 46 48 50 49 48 48 49 49 49 48 47 47 46 44 44 44 44 46 47 49 49 50 50 50 49 50 50 51 52 54 55 55 56 57 58 59 60 61 62 64
72 72 72 72 70 68 65 62 58 56 55 54 54 53 52 51 50 48 46 45 44 43 44 45 47 49 48 47 47 48 49 49 49 48 48 47 46 45 45 45 46 46 47 47 48 49 49 48 49 49 49 50 52 53 53 55 56 57 57 57 58 60 60
71 71 71 71 69 66 64 61 57 55 54 54 54 53 51 50 50 49 47 44 42 42 43 45 46 47 46 46 47 47 47 48 48 48 48 48 47 47 46 46 47 48 47 46 46 47 48 47 47 48 48 49 50 50 51 53 55 56 55 54 56 57 57
69 69 70 69 67 64 62 59 56 54 52 52 53 53 52 50 49 49 48 45 42 43 44 44 45 45 46 46 46 46 46 47 47 48 48 47 47 46 46 46 46 47 48 46 45 46 46 46 46 47 47 48 49 49 50 52 54 54 53 52 53 54 54
67 67 68 69 67 65 62 59 57 54 52 50 50 51 52 51 49 49 49 45 43 43 44 44 45 45 45 46 46 46 46 46 46 46 46 45 45 44 44 44 44 45 46 45 44 45 45 44 44 45 46 47 48 47 48 51 52 52 51 50 51 51 52
65 65 65 65 65 64 63 61 59 57 54 52 50 49 50 49 49 50 51 48 44 44 45 45 45 45 45 45 45 45 44 44 43 44 44 43 41 41 41 42 42 42 44 43 41 42 43 42 42 43 44 45 46 46 47 49 50 50 49 49 49 49 49
63 63 63 62 61 61 61 60 60 59 57 55 53 51 50 49 47 48 51 50 47 45 46 45 45 45 45 44 44 43 42 41 41 41 42 41 39 39 39 40 40 40 42 41 39 39 40 40 40 41 42 43 44 45 46 47 48 48 47 47 48 48 48
61 61 61 60 59 58 58 58 59 59 58 57 55 53 52 51 48 46 49 50 48 47 47 46 46 46 46 45 45 43 41 41 40 40 40 40 39 38 37 38 39 39 40 40 39 37 37 38 38 39 40 40 42 43 44 45 45 46 45 46 46 46 46
61 59 58 58 58 57 56 56 56 57 57 57 57 55 54 53 50 48 48 48 48 47 47 46 46 46 46 46 45 44 43 41 40 40 39 39 38 38 37 37 38 38 38 38 37 36 36 36 37 37 38 39 39 41 42 42 43 43 43 44 44 44 44
64 60 57 56 56 57 56 55 54 54 55 55 56 56 56 55 53 51 49 48 48 47 47 46 46 46 46 46 46 45 44 43 42 40 39 39 39 38 38 38 38 38 37 37 36 35 35 35 35 36 37 37 38 39 40 40 41 41 41 42 42 42 42
64 62 59 57 56 56 57 56 55 54 54 54 53 54 55 55 55 53 52 50 49 48 48 47 47 46 46 46 46 45 44 44 43 41 40 39 39 38 38 38 38 38 38 36 35 34 34 34 34 35 36 36 36 37 38 38 39 39 39 39 40 40 41
Wind_Direction
294 294 294 294 294 294 294 294 292 291 290 289 288 288 287 286 285 284 283 282 281 280 279 278 276 275 274 273 272 270 269 267 266 264 262 260 258 256 255 253 252 250 249 251 252 252 251 251 250 250 251 251 251 250 250 250 249 249 248 248 248 248 248
296 295 296 296 295 295 295 295 293 292 291 290 290 289 289 288 286 285 284 282 281 280 279 278 277 276 274 273 272 271 269 268 267 265 264 262 260 258 256 253 251 250 248 249 251 251 250 250 250 250 250 250 250 250 250 249 249 248 248 248 247 247 247
297 297 297 297 297 297 297 296 294 293 292 292 291 291 290 289 287 286 284 283 282 281 280 278 277 276 275 274 272 271 270 269 267 266 264 262 261 259 257 255 253 251 249 248 250 251 250 249 249 249 249 249 249 249 249 249 249 248 248 248 247 247 247
299 299 299 298 299 299 298 297 295 294 294 294 293 293 292 291 289 287 285 284 282 281 280 279 278 277 275 274 273 272 270 269 267 266 264 263 262 260 259 257 255 253 251 250 250 251 250 249 249 249 248 248 248 248 248 248 248 248 248 247 247 247 247
300 300 300 300 300 300 299 297 296 296 296 296 295 294 293 292 290 288 286 284 283 282 281 279 278 277 276 275 273 272 270 269 268 266 265 264 263 261 260 258 257 254 252 250 250 250 250 250 249 248 248 247 247 248 248 248 248 248 248 247 247 247 247
302 301 301 302 301 301 300 299 298 298 298 297 297 296 295 293 290 289 287 285 284 283 282 281 279 278 277 275 274 272 271 269 268 267 266 265 264 262 261 259 257 255 253 251 250 249 250 250 250 249 249 248 248 248 249 249 249 249 249 249 248 248 248
303 303 303 303 303 302 301 300 300 300 299 299 298 297 295 293 291 290 288 286 285 284 283 282 280 279 278 276 274 272 271 270 269 268 267 266 264 263 261 260 258 256 254 252 251 250 250 250 250 250 250 250 249 249 249 250 250 250 250 250 249 248 248
305 305 305 304 304 303 302 302 301 301 300 299 298 298 296 294 292 291 289 287 286 285 284 283 282 280 278 276 274 272 271 270 270 268 267 266 264 263 262 260 259 257 256 254 252 251 250 250 250 251 251 250 250 250 249 249 249 250 250 251 250 249 249
306 306 306 305 305 304 304 303 302 301 301 300 299 299 297 295 293 292 290 288 287 286 285 284 283 281 279 277 274 273 272 271 270 269 268 266 265 263 262 261 259 258 257 255 254 253 251 251 250 251 251 251 251 250 250 249 249 249 249 250 250 250 249
308 307 307 306 306 305 305 304 303 302 301 301 300 299 298 296 295 292 290 289 288 287 286 286 285 283 280 277 275 273 272 271 270 269 268 267 265 264 263 261 260 259 258 257 255 254 253 252 251 251 251 251 251 251 250 250 250 249 249 249 250 249 249
309 308 307 307 307 306 306 304 303 303 302 302 301 300 298 297 296 293 291 290 289 288 287 287 285 284 281 278 276 274 273 272 270 269 268 267 266 265 264 262 261 260 259 258 257 256 255 253 252 252 252 251 251 251 251 250 250 250 249 248 249 249 250
310 309 308 308 308 307 306 305 304 304 303 303 302 301 299 298 296 293 292 290 289 288 288 287 286 285 282 279 277 276 274 273 271 270 268 267 267 266 265 264 263 262 261 259 258 257 255 254 252 252 252 251 251 251 251 251 250 250 249 249 249 249 250
310 310 309 309 308 308 307 305 305 305 304 304 303 302 300 298 296 294 292 291 290 289 288 288 287 285 282 280 279 277 276 274 271 269 268 267 266 266 265 265 264 263 262 262 260 258 256 254 252 251 252 252 251 251 251 250 250 250 250 250 250 249 249
311 310 310 309 309 308 307 306 306 306 305 304 304 303 301 299 296 294 292 291 290 290 290 289 288 285 283 281 280 278 277 274 272 271 269 267 266 265 264 264 264 263 263 261 260 259 258 256 254 252 252 252 252 251 250 250 250 250 249 249 248 248 248
312 311 311 310 310 309 308 307 306 306 306 305 305 304 302 299 296 294 292 291 291 291 291 290 288 286 285 283 282 280 278 276 275 273 272 270 268 267 266 265 264 263 262 259 257 256 257 258 257 254 252 251 251 250 249 250 250 249 249 248 248 248 248
313 312 311 311 310 310 309 308 307 307 307 306 306 304 302 299 296 294 292 291 291 292 292 290 288 287 286 285 283 282 280 278 277 276 274 272 271 270 268 267 266 264 262 260 258 255 254 255 256 256 255 253 252 250 249 249 249 249 248 248 248 248 248
314 313 312 311 311 310 310 309 308 308 308 307 306 305 302 299 296 294 293 292 292 292 291 290 289 288 287 286 284 283 282 280 278 277 276 275 274 272 271 269 268 266 264 262 260 258 255 254 254 255 256 255 254 252 250 248 248 248 248 248 247 248 248
314 314 313 312 311 310 310 310 309 309 309 308 307 305 302 299 297 295 293 293 293 292 291 290 289 288 287 286 285 284 283 281 280 278 277 276 275 274 273 272 270 268 266 264 261 259 259 257 255 254 254 255 255 253 251 249 248 248 248 247 247 246 247
315 315 314 312 311 311 311 311 310 310 310 309 307 305 302 300 297 295 294 294 293 292 291 290 289 288 287 286 285 284 283 282 280 279 277 275 274 273 273 272 272 271 269 267 263 260 259 259 258 256 255 254 254 253 252 250 249 248 247 246 246 246 246
316 316 314 312 311 311 312 312 311 311 310 309 307 305 303 300 297 296 295 294 293 293 292 291 289 288 287 286 285 285 284 283 281 279 277 275 273 272 272 272 272 271 270 268 266 263 261 259 259 258 257 256 254 253 252 251 251 250 248 246 246 246 246
317 317 314 312 312 312 313 313 313 312 311 309 307 305 303 300 298 297 295 295 295 294 293 291 289 288 287 286 285 285 284 284 282 280 278 275 272 271 272 272 272 272 270 268 267 266 264 261 259 258 258 258 257 255 253 252 251 250 249 248 246 245 245
318 317 315 313 312 313 314 315 314 313 312 309 307 305 304 301 299 298 297 296 296 295 293 292 290 289 288 287 286 285 285 284 283 281 278 275 273 272 272 272 272 272 272 271 269 267 265 264 262 259 257 257 258 258 256 254 251 250 249 248 247 246 245
319 317 315 313 312 313 315 316 315 314 312 310 307 306 305 303 301 299 298 297 296 295 294 293 292 291 289 287 287 287 286 284 283 282 280 277 274 272 271 270 270 271 272 271 270 268 266 264 263 262 260 258 258 258 257 255 253 250 249 248 247 246 245
319 317 315 313 313 315 316 317 316 315 313 310 308 307 306 305 303 301 299 298 297 296 295 294 293 291 289 289 290 289 287 286 285 284 283 280 277 273 269 268 269 270 271 270 269 268 267 265 263 262 261 260 259 258 258 256 254 251 249 248 247 246 246
319 317 315 314 314 316 317 317 317 316 313 311 309 308 307 306 305 303 300 299 299 298 297 295 293 291 291 292 292 290 289 289 289 288 287 285 282 277 273 271 270 271 271 271 270 269 268 266 264 262 261 261 260 259 258 257 254 252 250 248 247 246 246
320 318 316 315 316 317 317 317 318 316 313 311 310 309 308 307 306 304 302 300 300 299 297 295 293 292 293 294 293 292 292 292 292 291 290 288 286 282 278 275 273 272 272 272 272 270 269 267 265 263 261 260 260 259 258 256 255 253 251 249 248 247 247
320 318 316 316 317 317 317 317 318 316 314 312 310 309 308 307 306 305 303 302 301 299 297 294 293 294 295 295 295 294 295 294 294 294 293 292 291 288 285 282 278 275 273 272 272 271 270 268 266 264 263 261 260 259 257 256 255 253 251 250 249 248 247
321 319 317 317 317 317 317 317 317 316 314 313 311 310 309 308 307 305 304 303 302 299 296 294 294 295 295 295 294 294 294 294 295 295 294 293 292 290 288 285 282 280 277 274 271 270 269 268 266 265 263 261 260 258 257 256 255 253 251 250 249 249 247
322 319 318 317 317 317 317 317 317 316 315 313 312 310 310 309 308 306 305 305 304 300 297 296 296 295 294 294 294 294 294 295 294 293 292 291 289 288 285 283 281 279 278 276 273 271 269 268 266 265 263 262 260 258 256 255 255 254 252 250 249 248 247
323 320 319 318 318 317 317 317 316 315 315 313 311 310 309 309 308 306 305 305 304 302 299 298 297 296 296 296 296 295 295 293 291 289 287 286 284 283 281 279 277 276 274 273 272 271 269 267 265 263 262 261 260 257 255 254 254 254 252 251 249 247 246
323 321 319 319 318 318 317 317 317 316 315 314 312 311 309 309 309 307 306 306 306 303 301 300 299 297 297 295 294 292 290 288 287 285 284 283 281 280 279 279 277 275 273 272 269 269 268 267 264 262 261 260 259 257 255 254 254 253 252 251 249 247 245
323 322 320 319 318 317 317 317 316 316 316 315 314 312 310 309 309 308 306 307 307 305 302 301 299 297 296 294 292 290 289 289 288 287 286 285 283 281 280 280 279 277 275 274 271 269 269 267 264 262 260 258 258 257 255 254 253 253 252 250 249 247 245
324 322 320 319 318 317 316 316 316 316 316 315 314 313 311 310 310 308 306 306 307 305 303 302 300 299 298 296 295 295 294 293 291 290 289 288 286 284 282 281 280 278 277 275 274 272 270 268 266 263 261 258 257 256 255 254 253 252 251 250 248 247 245
324 322 321 319 318 317 316 316 316 315 315 315 314 314 312 311 310 309 307 306 306 305 304 303 302 301 300 299 298 298 297 296 295 293 292 291 290 289 287 284 282 280 278 276 276 274 271 269 267 265 262 260 257 256 255 254 253 251 250 249 248 246 244
324 323 322 320 318 317 316 316 316 315 315 314 314 313 312 312 311 310 308 307 306 305 304 303 303 302 301 300 300 300 300 299 298 297 296 295 293 292 291 288 285 283 280 278 277 275 273 270 268 266 263 261 258 256 255 253 252 251 250 249 248 246 244
323 323 322 321 319 318 317 316 316 316 315 314 313 313 312 312 311 311 310 309 308 307 306 305 304 303 302 301 301 301 300 300 299 298 297 296 295 293 292 289 286 284 282 280 278 276 273 271 268 266 264 261 258 256 254 253 252 251 250 248 247 246 244